Regional Weather Roundup
Issued by NWS New Orleans/Baton Rouge, LA

Home | Current Version | Previous Version | Text Only | Print | Product List | Glossary Off
Versions: 1 2 3 4 5 6 7 8 9 10 11 12 13 14 15 16 17 18 19 20 21 22 23 24 25 26 27 28 29 30 31 32 33 34 35 36 37 38 39 40 41 42 43 44 45 46 47 48 49 50

967
ASUS44 KLIX 201910
RWRLIX
NEW ORLEANS REGIONAL WEATHER ROUNDUP
NATIONAL WEATHER SERVICE NEW ORLEANS LA
200 PM CDT SUN APR 20 2014

NOTE: "FAIR" INDICATES FEW OR NO CLOUDS BELOW 12,000 FEET WITH NO
      SIGNIFICANT WEATHER AND/OR OBSTRUCTIONS TO VISIBILITY.
      SKY/WX - SKY CONDITION AND SIGNIFICANT WEATHER.
      TMP - AIR TEMPERATURE.     DP    - DEWPOINT TEMPERATURE.
      RH  - RELATIVE HUMIDITY.   PRES  - PRESSURE.
      HI  - HEAT INDEX.          WCI   - WIND CHILL INDEX.

*  THESE STATIONS ARE NOT NWS OR FAA STATIONS AND ARE NOT UNDER
   NWS QUALITY CONTROL.

LAZ038-040-048-061>063-065>067-069-202000-
SOUTHEAST LOUISIANA

CITY           SKY/WX    TMP DP  RH WIND       PRES   REMARKS
N.O. AUDUBON     N/A     82  50  33 MISG        N/A
N.O. INTL ARPT MOSUNNY   79  52  38 NE8       30.15F
N.O. LAKEFRONT SUNNY     75  58  55 NW5       30.17F
N.O. DOWNTOWN*   N/A     81  54  39 NE5       30.16F
SLIDELL        SUNNY     81  51  35 VRB6      30.14F
BATON ROUGE    SUNNY     83  50  31 NE6       30.15F
BOOTHVILLE     MOSUNNY   69  59  70 NE7       30.18F
BELLE CHASSE   MOSUNNY   79  57  47 E10       30.15F
BOGALUSA*        N/A     82  49  32 NE6       30.16F
GALLIANO*      CLEAR     78  58  50 N3        30.16F
NEW ROADS*       N/A     79  52  37 SE5       30.15F
GONZALES*        N/A     80  51  36 CALM      30.14F
HAMMOND*       MOSUNNY   82  46  28 NE5       30.16F
HOUMA*         MOSUNNY   81  50  34 E6        30.15S
PORT FOURCHON* CLEAR     72  59  64 VRB8      30.18F

$$

MSZ070-080>082-202000-
SOUTHERN MISSISSIPPI

CITY           SKY/WX    TMP DP  RH WIND       PRES   REMARKS
MCCOMB         SUNNY     79  48  33 CALM      30.16F
GULFPORT       SUNNY     77  58  51 S8        30.14F
BILOXI         SUNNY     76  60  57 S12       30.15F
PASCAGOULA     SUNNY     78  55  44 N9G20     30.14F
STENNIS ARPT*  SUNNY     81  48  32 N9        30.15F

$$

COASTAL OBSERVATIONS
LAKE AND NEARSHORE STATIONS

STATION/POSITION TIME  TEMP    WIND        PRES    WAVE
                       AIR SEA DIR/SP/G            HT/PER
                 (UTC) (F)     (DEG/KT/KT) (MB)    (FT/S)
PASCAGOULA       1900   68     190/  9/ 11 1020.3
WAVELAND YACHT   1900   68 68  180/ 10/ 13 1020.3
GRAND ISLE       1900   71 68  100/  5/  8 1022.0
SOUTHWEST PASS   1900   76 59   70/  8/ 10 1021.9
NEW CANAL        1900   71 67   10/  4/  5 1021.8
SHELL BEACH      1900   69 67   20/  2/  3 1021.4

OFFSHORE STATIONS

STATION/POSITION TIME  TEMP    WIND        PRES    WAVE
                       AIR SEA DIR/SP/G            HT/PER
                 (UTC) (F)     (DEG/KT/KT) (MB)    (FT/S)
64 S DAUPHIN ISL 1754   63 71   30/ 12/ 14 1021.6

$$




USA.gov is the U.S. government's official web portal to all federal, state and local government web resources and services.